Location: Zagreb
(45.8000°N, 16.0000°E)
Time: 19:50:05
(UTC+01:00)

YUBILEINY - Pass Details

Date: 04 November 2020
Orbit: 1478 x 1509 km, 82.5° (Epoch: 01 December)

Event Time Altitude Azimuth Distance (km) Brightness Sun altitude
Rises 19:45:11 0° 354° (N) 4,611 ? -32.9°
Reaches altitude 10° 19:48:24 10° 2° (N) 3,627 ? -33.5°
Enters shadow 19:52:35 27° 24° (NNE) 2,541 ? -34.2°
